This is the latest recevied weather packets stored in our database for station/object IN3XSV-13. If no packets are shown the sender has not sent any weather packets the latest 1 day(s).
| Time | Temp. | Humidity | Pressure | Rain* | Wind** | Luminosity | Snow |
|---|---|---|---|---|---|---|---|
| 1777944830 | 11.67° C | 71% | 9953.9 hPa | 0 mm | 0 m/s | - | - |
| 1777944530 | 11.67° C | 71% | 9954 hPa | 0 mm | 0 m/s | - | - |
| 1777944230 | 11.67° C | 71% | 9954 hPa | 0 mm | 0 m/s | - | - |
| 1777943930 | 11.67° C | 71% | 9954.1 hPa | 0 mm | 0 m/s | - | - |
| 1777943636 | 11.67° C | 72% | 9954.1 hPa | 0 mm | 0 m/s | - | - |
| 1777943330 | 11.67° C | 72% | 9954.1 hPa | 0 mm | 0 m/s | - | - |
| 1777943030 | 11.67° C | 71% | 9954.2 hPa | 0 mm | 0 m/s | - | - |
| 1777942730 | 11.67° C | 70% | 9954.2 hPa | 0 mm | 0 m/s | - | - |
| 1777942430 | 12.22° C | 70% | 9954.3 hPa | 0 mm | 0 m/s | - | - |
| 1777942130 | 12.22° C | 69% | 9954.2 hPa | 0 mm | 0 m/s | - | - |
| 1777941830 | 12.22° C | 69% | 9954.3 hPa | 0 mm | 0.45 m/s, 202° | - | - |
| 1777941530 | 12.78° C | 69% | 9954.4 hPa | 0 mm | 0 m/s | - | - |
| 1777941230 | 12.78° C | 68% | 9954.3 hPa | 0 mm | 0 m/s | - | - |
| 1777940930 | 12.78° C | 68% | 9954.5 hPa | 0 mm | 0 m/s | - | - |
| 1777940630 | 12.78° C | 68% | 9954.5 hPa | 0 mm | 0 m/s | - | - |
| 1777940330 | 13.33° C | 68% | 9954.5 hPa | 0 mm | 0 m/s | - | - |
| 1777940030 | 13.33° C | 67% | 9954.5 hPa | 0 mm | 0 m/s | - | - |
| 1777939730 | 13.33° C | 67% | 9954.6 hPa | 0 mm | 0 m/s | - | - |
| 1777939430 | 13.33° C | 67% | 9954.7 hPa | 0 mm | 0 m/s | - | - |
| 1777939130 | 13.89° C | 67% | 9954.7 hPa | 0 mm | 0 m/s | - | - |
| 1777938830 | 13.89° C | 67% | 9954.7 hPa | 0 mm | 0 m/s | - | - |
| 1777938530 | 13.89° C | 67% | 9954.6 hPa | 0 mm | 0 m/s | - | - |
| 1777938230 | 13.89° C | 67% | 9954.8 hPa | 0 mm | 0 m/s | - | - |
| 1777937930 | 14.44° C | 66% | 9954.8 hPa | 0 mm | 0 m/s | - | - |
| 1777937630 | 13.89° C | 67% | 9954.8 hPa | 0 mm | 0 m/s | - | - |
* Rain latest hour (hover to see other rain measurements)
** Current wind speed in m/s (hover to see current wind gust speed)